IRNSS-1I

Last updated on Jan. 24, 2021, 6:18 a.m. UTC

1 43286U 18035A   21022.78818365  .00000086  00000-0  00000+0 0  9996
2 43286  28.7837 105.7587 0021990 184.0911 171.2525  1.00271235 10306
UTC
Height (km)
Latitude
Longitude
Inclination
Orbital Period
UTC large
Height (km)
Speed (km/s)
/
Latitude / Longitude
Inclination (degrees)
Orbital Period (minutes)
Azimuth
Elevation
Range (km)
Doppler Factor
iOS Compass Heading
iOS Angle

Next 30 passes for location: Hong Kong

Rise time Rise Azimuth (degrees) Set time Set Azimuth (degrees) Duration Max altitude (degrees)

No matching passes for this satellites